Snowfall_Accumulation
0.7 1.9 4.4 0.9 0.9 1.1 1.5 1.8 1.8 1.0 0.1 0.5 0.4 0.2 0.0 0.0 0.0 0.0 0.0 0.0 0.0 0.0 0.0 0.0 0.0 0.0 0.0 0.0 0.0 0.0 0.0 0.0 0.0 0.0 0.0 0.0 0.0 0.0 0.0 0.0 0.0 0.0 0.0 0.0
2.2 3.7 0.5 0.1 0.3 1.1 1.4 2.4 1.7 0.7 0.1 0.8 0.7 0.2 0.0 0.0 0.0 0.0 0.0 0.0 0.0 0.0 0.0 0.0 0.0 0.0 0.0 0.0 0.0 0.0 0.0 0.0 0.0 0.0 0.0 0.0 0.0 0.0 0.0 0.0 0.0 0.0 0.0 0.0
4.9 1.7 0.1 0.4 1.4 2.2 1.7 1.9 1.7 1.8 0.7 0.2 0.8 1.2 0.3 0.0 0.0 0.0 0.0 0.0 0.0 0.0 0.0 0.0 0.0 0.0 0.0 0.0 0.0 0.0 0.0 0.0 0.0 0.0 0.0 0.0 0.0 0.0 0.0 0.0 0.0 0.0 0.0 0.0
2.0 0.3 0.1 0.9 1.3 1.7 2.8 0.4 0.6 1.1 1.8 2.9 2.7 6.5 1.5 0.5 0.0 0.2 0.1 0.0 0.0 0.0 0.0 0.0 0.0 0.0 0.0 0.0 0.0 0.0 0.0 0.0 0.0 0.0 0.0 0.0 0.0 0.0 0.0 0.0 0.0 0.0 0.0 0.0
2.7 0.3 0.5 1.6 1.0 0.7 1.4 0.2 0.3 0.8 2.3 4.4 1.5 5.1 4.2 0.6 0.8 0.3 0.2 0.1 0.0 0.0 0.0 0.0 0.0 0.0 0.0 0.0 0.0 0.0 0.0 0.0 0.0 0.0 0.0 0.0 0.0 0.0 0.0 0.0 0.0 0.0 0.0 0.0
0.8 0.1 0.0 0.7 0.0 0.1 0.2 0.1 0.3 0.7 3.2 7.9 2.5 4.2 4.7 2.5 2.0 1.2 0.8 0.3 0.1 0.0 0.0 0.0 0.0 0.0 0.0 0.0 0.0 0.0 0.0 0.0 0.0 0.0 0.0 0.0 0.0 0.0 0.0 0.0 0.0 0.0 0.0 0.0
8.8 1.3 0.1 0.1 1.0 0.8 0.9 5.9 13.0 13.0 11.9 5.9 1.5 2.6 3.6 0.9 0.7 0.7 0.7 0.4 0.4 0.2 0.0 0.1 0.0 0.0 0.0 0.0 0.0 0.0 0.0 0.0 0.0 0.0 0.0 0.0 0.0 0.0 0.0 0.0 0.0 0.0 0.0 0.0
11.9 10.5 0.8 0.1 0.4 1.4 1.2 3.6 8.9 9.2 5.9 2.5 1.4 2.3 2.1 0.1 0.1 0.1 0.2 0.2 0.2 0.2 0.1 0.0 0.0 0.0 0.0 0.0 0.0 0.0 0.0 0.0 0.0 0.0 0.0 0.0 0.0 0.0 0.0 0.0 0.0 0.0 0.0 0.0
7.5 8.0 0.4 0.0 0.0 0.3 3.0 3.7 2.6 7.3 5.3 3.6 2.1 1.8 0.9 0.2 0.2 0.1 0.1 0.1 0.1 0.1 0.1 0.1 0.0 0.0 0.0 0.0 0.0 0.0 0.0 0.0 0.0 0.0 0.0 0.0 0.0 0.0 0.0 0.0 0.0 0.0 0.0 0.0
3.5 7.8 1.5 0.0 0.1 0.0 0.3 1.2 5.5 11.3 9.1 5.2 2.3 1.6 2.4 1.3 0.7 0.7 0.5 0.1 0.0 0.1 0.1 0.1 0.0 0.0 0.0 0.0 0.0 0.0 0.0 0.0 0.0 0.0 0.0 0.0 0.0 0.0 0.0 0.0 0.0 0.0 0.0 0.0
0.9 6.8 5.0 2.1 3.3 3.0 2.5 4.1 6.7 8.4 7.0 6.5 3.7 2.3 1.6 1.0 0.9 0.8 0.6 0.2 0.1 0.1 0.2 0.0 0.0 0.0 0.0 0.0 0.0 0.0 0.0 0.0 0.0 0.0 0.0 0.0 0.0 0.0 0.0 0.0 0.0 0.0 0.0 0.0
0.8 4.7 7.0 2.7 0.1 0.1 1.2 2.9 5.0 8.9 6.2 5.0 4.4 2.7 0.2 0.2 0.5 0.4 0.3 0.1 0.1 0.1 0.2 0.2 0.1 0.0 0.0 0.0 0.1 0.0 0.0 0.0 0.0 0.0 0.0 0.0 0.0 0.0 0.0 0.0 0.0 0.0 0.0 0.0
1.0 6.2 9.4 3.9 1.4 0.4 3.1 1.8 1.9 5.0 8.5 7.2 5.7 3.0 0.1 0.1 0.3 0.3 0.3 0.2 0.2 0.2 0.2 0.1 0.1 0.1 0.0 0.0 0.0 0.0 0.0 0.0 0.0 0.0 0.0 0.0 0.0 0.0 0.0 0.0 0.0 0.0 0.0 0.0
0.4 6.2 6.7 5.9 4.4 4.1 4.4 2.6 2.4 7.2 12.8 6.6 3.4 2.4 1.1 0.7 0.4 0.3 0.3 0.1 0.2 0.2 0.2 0.2 0.2 0.2 0.1 0.2 0.1 0.1 0.0 0.0 0.1 0.0 0.0 0.0 0.0 0.0 0.0 0.0 0.0 0.0 0.0 0.0
0.4 7.8 5.8 3.2 1.3 2.7 3.5 2.9 2.9 5.7 5.7 6.6 2.9 1.8 1.2 1.0 0.3 0.2 0.1 0.1 0.2 0.1 0.2 0.2 0.2 0.2 0.1 0.1 0.0 0.1 0.1 0.2 0.2 0.0 0.0 0.0 0.0 0.0 0.0 0.0 0.0 0.0 0.0 0.0
0.7 5.3 5.2 3.6 1.3 2.0 3.2 1.6 1.3 1.8 1.5 2.4 2.4 2.0 0.3 0.2 0.1 0.1 0.1 0.0 0.2 0.2 0.2 0.2 0.2 0.4 0.4 0.1 0.1 0.1 0.2 0.2 0.2 0.1 0.0 0.0 0.0 0.0 0.1 0.1 0.0 0.0 0.0 0.0
1.0 3.5 7.3 5.6 1.8 3.0 5.4 0.9 0.9 1.0 0.8 1.3 2.1 0.9 0.2 0.2 0.2 0.2 0.1 0.1 0.1 0.1 0.2 0.3 0.2 0.3 0.3 0.2 0.2 0.1 0.2 0.2 0.2 0.2 0.1 0.1 0.1 0.1 0.1 0.1 0.1 0.1 0.3 0.2
0.7 2.0 6.4 5.9 4.5 6.2 1.5 0.4 0.4 0.6 0.8 0.6 0.7 0.5 0.3 0.3 0.1 0.0 0.0 0.1 0.1 0.1 0.2 0.1 0.1 0.3 0.3 0.3 0.2 0.2 0.1 0.1 0.1 0.1 0.1 0.1 0.1 0.1 0.2 0.1 0.2 0.3 0.5 0.6
0.2 1.2 6.0 6.0 4.5 2.8 0.4 0.3 0.4 0.7 1.2 0.4 0.5 0.3 0.2 0.1 0.1 0.0 0.0 0.0 0.1 0.0 0.0 0.0 0.0 0.2 0.2 0.2 0.3 0.2 0.0 0.1 0.1 0.1 0.1 0.0 0.1 0.2 0.2 0.4 0.5 0.5 0.9 1.4
0.1 0.6 4.2 5.5 4.8 2.4 0.8 0.2 0.1 0.2 1.5 0.4 0.3 0.4 0.3 0.2 0.8 0.5 0.0 0.0 0.0 0.0 0.0 0.0 0.0 0.1 0.1 0.1 0.2 0.4 0.4 0.2 0.1 0.2 0.5 0.1 0.2 0.5 0.5 0.9 1.1 1.3 1.7 2.1
1.2 2.3 4.2 4.2 4.3 1.5 0.5 0.2 0.1 1.1 2.6 0.3 0.2 0.2 0.3 0.4 0.6 0.3 0.0 0.0 0.0 0.0 0.0 0.0 0.0 0.1 0.1 0.1 0.1 0.2 0.4 0.8 1.4 0.7 0.9 0.9 0.6 0.8 1.2 1.1 1.1 1.0 1.2 1.1
1.1 1.9 2.1 2.6 4.1 2.2 0.4 0.3 0.7 0.8 0.4 0.2 0.2 0.2 0.2 0.3 0.1 0.1 0.0 0.0 0.0 0.1 0.0 0.1 0.1 0.2 0.7 0.3 0.6 0.8 1.5 2.0 1.5 1.3 1.9 1.9 1.6 1.2 1.0 1.3 1.1 1.1 1.1 0.9
0.9 1.3 1.7 2.2 2.1 0.8 0.5 0.5 0.3 0.3 0.3 0.2 0.2 0.2 0.2 0.1 0.1 0.1 0.0 0.0 0.0 0.0 0.0 0.0 0.0 0.1 0.4 0.5 0.5 0.6 1.4 1.4 1.4 1.6 1.8 1.6 1.0 0.8 0.8 0.9 0.6 0.5 0.4 0.4
0.8 0.6 1.0 1.4 0.9 0.6 0.4 0.2 0.1 0.1 0.2 0.2 0.2 0.1 0.1 0.1 0.1 0.1 0.1 0.1 0.1 0.1 0.1 0.1 0.1 0.2 0.2 0.3 0.4 0.6 0.6 0.5 0.5 0.7 0.7 0.5 0.3 0.3 0.3 0.2 0.2 0.3 0.3 0.3
0.8 0.7 1.2 1.2 0.6 0.4 0.1 0.2 0.2 0.2 0.1 0.1 0.1 0.1 0.1 0.1 0.1 0.1 0.1 0.1 0.1 0.1 0.1 0.1 0.1 0.1 0.2 0.2 0.3 0.3 0.3 0.2 0.2 0.2 0.1 0.1 0.1 0.1 0.1 0.1 0.1 0.2 0.2 0.4
0.3 0.8 1.4 1.4 0.5 0.8 0.5 0.2 0.2 0.1 0.1 0.0 0.1 0.1 0.0 0.1 0.1 0.0 0.1 0.1 0.1 0.1 0.1 0.1 0.2 0.2 0.2 0.2 0.2 0.2 0.2 0.1 0.2 0.2 0.2 0.3 0.2 0.2 0.2 0.1 0.1 0.1 0.1 0.2